TimeMST,TemperatureF,Dew PointF,Humidity,Sea Level PressureIn,VisibilityMPH,Wind Direction,Wind SpeedMPH,Gust SpeedMPH,PrecipitationIn,Events,Conditions,WindDirDegrees,DateUTC
1:15 AM,14.9,10.8,84,30.15,10.0,WNW,5.8,-,N/A,,Clear,300,2013-01-10 08:15:00
1:35 AM,11.8,8.6,87,30.15,10.0,NW,4.6,-,N/A,,Clear,320,2013-01-10 08:35:00
1:55 AM,12.2,9.3,88,30.15,10.0,NNW,3.5,-,N/A,,Clear,330,2013-01-10 08:55:00
2:15 AM,11.1,7.5,85,30.14,10.0,Calm,Calm,-,N/A,,Clear,0,2013-01-10 09:15:00
2:35 AM,11.1,8.2,88,30.13,10.0,WNW,3.5,-,N/A,,Clear,300,2013-01-10 09:35:00
3:15 AM,13.1,10.0,88,30.12,10.0,NW,4.6,-,N/A,,Clear,310,2013-01-10 10:15:00
3:35 AM,11.3,8.6,89,30.10,10.0,NW,4.6,-,N/A,,Clear,310,2013-01-10 10:35:00
3:55 AM,10.0,7.7,90,30.09,10.0,NNW,5.8,-,N/A,,Clear,330,2013-01-10 10:55:00
4:15 AM,10.2,7.7,90,30.08,10.0,North,5.8,-,N/A,,Clear,350,2013-01-10 11:15:00
4:35 AM,11.1,8.6,90,30.07,10.0,West,3.5,-,N/A,,Clear,280,2013-01-10 11:35:00
5:15 AM,10.2,7.5,89,30.06,10.0,NW,3.5,-,N/A,,Clear,320,2013-01-10 12:15:00
5:35 AM,10.2,7.3,88,30.07,10.0,NW,3.5,-,N/A,,Clear,320,2013-01-10 12:35:00
5:55 AM,9.1,6.1,87,30.06,10.0,WNW,3.5,-,N/A,,Clear,300,2013-01-10 12:55:00
6:15 AM,10.6,7.5,87,30.05,10.0,Calm,Calm,-,N/A,,Clear,0,2013-01-10 13:15:00
6:35 AM,9.3,5.5,85,30.05,10.0,NNW,3.5,-,N/A,,Clear,330,2013-01-10 13:35:00
6:55 AM,8.6,5.7,88,30.04,10.0,NW,5.8,-,N/A,,Clear,310,2013-01-10 13:55:00
7:15 AM,11.3,8.2,87,30.05,10.0,NW,5.8,-,N/A,,Clear,310,2013-01-10 14:15:00
7:35 AM,10.9,7.9,87,30.05,10.0,WNW,4.6,-,N/A,,Clear,290,2013-01-10 14:35:00
7:55 AM,13.6,10.2,86,30.04,10.0,NW,3.5,-,N/A,,Clear,310,2013-01-10 14:55:00
8:15 AM,13.5,9.5,84,30.05,10.0,NNW,3.5,-,N/A,,Clear,330,2013-01-10 15:15:00
8:55 AM,17.6,11.8,78,30.06,10.0,Calm,Calm,-,N/A,,Clear,0,2013-01-10 15:55:00
9:15 AM,19.2,13.3,78,30.05,10.0,Calm,Calm,-,N/A,,Clear,0,2013-01-10 16:15:00
9:35 AM,21.6,14.4,74,30.05,10.0,Calm,Calm,-,N/A,,Clear,0,2013-01-10 16:35:00
9:55 AM,23.7,14.9,69,30.06,10.0,Calm,Calm,-,N/A,,Clear,0,2013-01-10 16:55:00
10:15 AM,26.4,16.2,65,30.04,10.0,Calm,Calm,-,N/A,,Clear,0,2013-01-10 17:15:00
10:35 AM,29.8,15.4,55,30.02,10.0,Calm,Calm,-,N/A,,Clear,0,2013-01-10 17:35:00
11:15 AM,36.1,14.4,41,30.00,10.0,SE,5.8,-,N/A,,Clear,140,2013-01-10 18:15:00
11:35 AM,39.2,13.6,35,29.98,10.0,SE,5.8,-,N/A,,Clear,130,2013-01-10 18:35:00
11:55 AM,41.4,13.8,33,29.96,10.0,SE,8.1,-,N/A,,Clear,140,2013-01-10 18:55:00
12:35 PM,46.8,14.7,28,29.92,10.0,South,3.5,-,N/A,,Clear,190,2013-01-10 19:35:00
12:55 PM,50.9,14.0,23,29.90,10.0,SSE,9.2,-,N/A,,Clear,160,2013-01-10 19:55:00
1:15 PM,54.1,12.6,19,29.88,10.0,SSE,13.8,19.6,N/A,,Clear,150,2013-01-10 20:15:00
1:35 PM,52.7,7.3,16,29.88,10.0,South,12.7,19.6,N/A,,Clear,190,2013-01-10 20:35:00
1:55 PM,51.4,9.1,18,29.88,10.0,South,8.1,-,N/A,,Clear,170,2013-01-10 20:55:00
2:15 PM,50.4,11.7,21,29.87,10.0,SSE,12.7,-,N/A,,Clear,150,2013-01-10 21:15:00
2:35 PM,49.5,12.4,23,29.87,10.0,SSE,11.5,-,N/A,,Clear,150,2013-01-10 21:35:00
2:55 PM,49.3,12.4,23,29.87,10.0,SSE,8.1,-,N/A,,Clear,150,2013-01-10 21:55:00
3:15 PM,49.3,12.2,23,29.87,10.0,SSE,11.5,-,N/A,,Clear,150,2013-01-10 22:15:00
3:35 PM,48.9,12.2,23,29.87,10.0,SSE,10.4,-,N/A,,Clear,150,2013-01-10 22:35:00
3:55 PM,47.1,11.1,23,29.86,10.0,SE,8.1,-,N/A,,Clear,130,2013-01-10 22:55:00
4:15 PM,46.0,11.3,25,29.85,10.0,ESE,6.9,-,N/A,,Clear,120,2013-01-10 23:15:00
4:35 PM,44.6,11.7,26,29.84,10.0,SE,5.8,-,N/A,,Clear,140,2013-01-10 23:35:00
4:55 PM,42.8,11.3,28,29.84,10.0,SE,5.8,-,N/A,,Clear,130,2013-01-10 23:55:00
5:15 PM,40.5,11.5,31,29.84,10.0,ESE,4.6,-,N/A,,Clear,120,2013-01-11 00:15:00
5:35 PM,39.4,11.5,32,29.84,10.0,ESE,6.9,-,N/A,,Clear,120,2013-01-11 00:35:00
5:55 PM,38.3,11.5,33,29.83,10.0,SSE,3.5,-,N/A,,Clear,150,2013-01-11 00:55:00
6:15 PM,36.5,11.1,35,29.84,10.0,SSE,3.5,-,N/A,,Clear,150,2013-01-11 01:15:00
6:35 PM,35.1,11.5,38,29.84,10.0,Calm,Calm,-,N/A,,Clear,0,2013-01-11 01:35:00
6:55 PM,34.2,12.2,40,29.82,10.0,North,-9999.0,-,N/A,,Clear,0,2013-01-11 01:55:00
7:15 PM,32.5,12.6,44,29.82,10.0,Calm,Calm,-,N/A,,Clear,0,2013-01-11 02:15:00
7:35 PM,30.4,12.4,47,29.82,10.0,Calm,Calm,-,N/A,,Clear,0,2013-01-11 02:35:00
7:55 PM,41.2,16.5,37,29.81,10.0,SSW,8.1,-,N/A,,Clear,200,2013-01-11 02:55:00
8:15 PM,42.4,16.2,35,29.80,10.0,South,12.7,19.6,N/A,,Clear,190,2013-01-11 03:15:00
8:35 PM,42.1,16.2,35,29.80,10.0,South,11.5,-,N/A,,Clear,190,2013-01-11 03:35:00
8:55 PM,41.4,16.5,37,29.79,10.0,South,9.2,-,N/A,,Clear,190,2013-01-11 03:55:00
9:15 PM,39.4,16.7,40,29.78,10.0,South,6.9,-,N/A,,Scattered Clouds,170,2013-01-11 04:15:00
9:35 PM,39.0,17.2,41,29.79,10.0,South,6.9,-,N/A,,Mostly Cloudy,180,2013-01-11 04:35:00
9:55 PM,35.8,17.1,47,29.78,10.0,South,9.2,-,N/A,,Mostly Cloudy,170,2013-01-11 04:55:00
10:15 PM,33.8,17.6,52,29.76,10.0,SE,9.2,-,N/A,,Scattered Clouds,140,2013-01-11 05:15:00
10:35 PM,32.5,18.0,55,29.75,10.0,SE,9.2,-,N/A,,Scattered Clouds,140,2013-01-11 05:35:00
10:55 PM,34.0,18.3,53,29.75,10.0,SSE,9.2,-,N/A,,Mostly Cloudy,160,2013-01-11 05:55:00
11:15 PM,35.6,18.3,50,29.73,10.0,SSE,9.2,-,N/A,,Overcast,160,2013-01-11 06:15:00
11:35 PM,36.9,19.0,49,29.74,10.0,South,6.9,-,N/A,,Overcast,180,2013-01-11 06:35:00
11:55 PM,37.6,19.4,48,29.74,10.0,SSE,4.6,-,N/A,,Overcast,160,2013-01-11 06:55:00